Tracking 30995 objects as of 5-Jul-2025
HD Live streaming from Space Station
objects crossing your sky now

STARLINK-3970

Track STARLINK-3970 now!
10-day predictions
STARLINK-3970 is classified as:


NORAD ID: 52706
Int'l Code: 2022-053BC
Perigee: 546.1 km
Apogee: 547.6 km
Inclination: 53.2 °
Period: 95.4 minutes
Semi major axis: 6917 km
RCS: Unknown
Launch date: May 18, 2022
Source: United States (US)
Launch site: AIR FORCE EASTERN TEST RANGE (AFETR)
Your satellite tracking list
IRIDIUM 33 DEB
Track 1 satellite(s)




NASA's NSSDC Master Catalog

Two Line Element Set (TLE):
1 52706U 22053BC  25186.20911638  .00000416  00000-0  44203-4 0  9992
2 52706  53.2161 165.1057 0001100  55.5329 304.5767 15.08841944173520
Source of the keplerian elements: AFSPC